This is the latest recevied weather packets stored in our database for station/object XQ6AK-15. If no packets are shown the sender has not sent any weather packets the latest 1 day(s).
| Time | Temp. | Humidity | Pressure | Rain* | Wind** | Luminosity | Snow |
|---|---|---|---|---|---|---|---|
| 1778031989 | 11.67° C | 99% | 1004.9 hPa | 3.05 mm | 0 m/s | 0 W/m² | - |
| 1778031684 | 11.67° C | 99% | 1005.1 hPa | 3.05 mm | 0 m/s | 0 W/m² | - |
| 1778031383 | 11.67° C | 99% | 1005 hPa | 3.05 mm | 0.45 m/s, 250° | 0 W/m² | - |
| 1778031079 | 11.67° C | 99% | 1005 hPa | 1.27 mm | 0 m/s | 0 W/m² | - |
| 1778030775 | 11.67° C | 99% | 1005 hPa | 1.78 mm | 0 m/s | 0 W/m² | - |
| 1778030472 | 11.67° C | 99% | 1005.1 hPa | 3.05 mm | 0 m/s | 0 W/m² | - |
| 1778030170 | 11.67° C | 99% | 1005.2 hPa | 3.05 mm | 0 m/s | 0 W/m² | - |
| 1778029866 | 12.22° C | 99% | 1004.9 hPa | 3.05 mm | 0 m/s | 0 W/m² | - |
| 1778029560 | 12.22° C | 99% | 1005.1 hPa | 1.27 mm | 0 m/s | 0 W/m² | - |
| 1778029256 | 12.22° C | 99% | 1004.9 hPa | 3.05 mm | 0 m/s | 0 W/m² | - |
| 1778028953 | 12.22° C | 99% | 1005 hPa | 4.83 mm | 0 m/s | 0 W/m² | - |
| 1778028648 | 12.22° C | 99% | 1005.1 hPa | 4.83 mm | 0 m/s | 0 W/m² | - |
| 1778028346 | 12.22° C | 99% | 1005.1 hPa | 3.05 mm | 0 m/s | 0 W/m² | - |
| 1778028047 | 12.22° C | 99% | 1005.1 hPa | 1.27 mm | 0 m/s | 0 W/m² | - |
| 1778027739 | 12.22° C | 99% | 1005.1 hPa | 3.05 mm | 0 m/s | 0 W/m² | - |
| 1778027435 | 12.22° C | 99% | 1005.1 hPa | 3.05 mm | 0 m/s | 0 W/m² | - |
| 1778027132 | 12.22° C | 99% | 1005 hPa | 3.05 mm | 0 m/s | 0 W/m² | - |
| 1778026827 | 12.22° C | 99% | 1005 hPa | 3.05 mm | 0 m/s | 0 W/m² | - |
| 1778026524 | 12.22° C | 99% | 1004.9 hPa | 1.27 mm | 0 m/s | 0 W/m² | - |
| 1778026221 | 12.22° C | 99% | 1004.8 hPa | 0 mm | 0 m/s | 0 W/m² | - |
| 1778025919 | 12.22° C | 99% | 1005.1 hPa | 1.78 mm | 0 m/s | 0 W/m² | - |
| 1778025616 | 12.22° C | 99% | 1004.8 hPa | 3.05 mm | 0 m/s | 0 W/m² | - |
| 1778025314 | 12.22° C | 99% | 1004.9 hPa | 4.83 mm | 0 m/s | 0 W/m² | - |
| 1778025010 | 12.22° C | 99% | 1004.8 hPa | 4.83 mm | 0 m/s | 0 W/m² | - |
| 1778024707 | 12.22° C | 99% | 1004.8 hPa | 4.83 mm | 0 m/s | 0 W/m² | - |
* Rain latest hour (hover to see other rain measurements)
** Current wind speed in m/s (hover to see current wind gust speed)